User: anonymous   Login
Location: ??
(35.5653°N, 139.6194°E)
Time: 10:14:11
(UTC+00:00)
Language:

COSMO-SKYMED 1 - Orbit

View from above orbital plane
View from above orbital plane
View from above satellite
View from above satellite

Ground track
Ground track

The orbit data is extracted from the following two-line orbital elements,

1 31598U 07023A   20019.19942618 -.00000180  00000-0 -15997-4 0  9996
2 31598  97.8845 204.5328 0001490  89.1381 270.9994 14.82155348682576
Epoch (UTC): 19 January 2020 04:47:10
Eccentricity: 0.0001490
inclination: 97.8845°
perigee height: 621 km
apogee height: 623 km
right ascension of ascending node: 204.5328°
argument of perigee: 89.1381°
revolutions per day: 14.82155348
mean anomaly at epoch: 270.9994°
orbit number at epoch: 68257

The dashed part of the orbit path shows where the satellite is in the earth's shadow,  

DLR